Regional Weather Roundup
Issued by NWS

Home | Current Version | Previous Version | Text Only | Print | Product List | Glossary On
Versions: 1 2 3 4 5 6 7 8 9 10 11 12 13 14 15 16 17 18 19 20 21 22 23 24 25 26 27 28 29 30 31 32 33 34 35 36 37 38 39 40 41 42 43 44 45 46 47 48 49 50
000
ASUS45 KABQ 270510
RWRNM
NEW MEXICO REGIONAL WEATHER ROUNDUP
NATIONAL WEATHER SERVICE ALBUQUERQUE NM
1100 PM MDT FRI MAY 26 2017

NOTE: "FAIR" MEANS FEW OR NO CLOUDS BELOW 12,000 FEET AGL WITH NO
       SIGNIFICANT WEATHER OR OBSTRUCTIONS TO VISION.

      THIS PRODUCT IS RELEASED AS TWO VERSIONS.  ONE VERSION NEAR
      THE TOP OF THE HOUR CONTAINING PRELIMINARY DATA FROM ALBUQUERQUE
      AND OTHER STATIONS.  A FINAL VERSION WITH ADDITIONAL DATA IS
      ISSUED ABOUT 10 MINUTES AFTER THE HOUR.

NMZ501-503-504-510>518-270600-
NORTHWEST PLATEAU/NORTHCENTRAL MOUNTAINS

CITY           SKY/WX    TMP DP  RH WIND       PRES   REMARKS
FARMINGTON     FAIR      62  13  14 W6        29.96R
LOS ALAMOS     FAIR      64   7  10 W14G22    30.10R
SANTA FE       FAIR      58  12  16 E6        30.05R
TAOS           FAIR      48  10  21 NE3       30.09S
ANGEL FIRE     FAIR      47  16  28 S9        30.15R

$$
NMZ402-403-502-505>509-270600-
WESTCENTRAL MOUNTAINS/SOUTHWEST MOUNTAINS

CITY           SKY/WX    TMP DP  RH WIND       PRES   REMARKS
GALLUP         FAIR      60   9  13 SW13      30.10R
GRANTS         FAIR      54   5  14 W7        30.13R
SILVER CITY    FAIR      69  14  12 W10       30.09R

$$
NMZ407-409-411-412-270600-
SOUTHERN DESERTS

CITY           SKY/WX    TMP DP  RH WIND       PRES   REMARKS
DEMING         FAIR      75  24  15 W10       30.02R
LAS CRUCES     FAIR      75  22  14 W12       30.03R
HOLLOMAN AFB   FAIR      76  24  14 SE6       30.00R
ALAMOGORDO     FAIR      66  27  22 S8        29.99R
T OR C         FAIR      72  12  10 W9        30.00R

$$
NMZ519>523-270600-
CENTRAL VALLEYS/CENTRAL HIGHLANDS

CITY           SKY/WX    TMP DP  RH WIND       PRES   REMARKS
ALBUQUERQUE    FAIR      71  10   9 CALM      30.02R
DOUBLE EAGLE   FAIR      61  13  15 W12       30.05R
MORIARTY ARPT  FAIR      60  13  15 W5        30.07R
CLINES CORNERS FAIR      57  11  16 W15       30.11R
BELEN          FAIR      66  10  11 W10       30.02R
SOCORRO        FAIR      71  13  10 W10       29.99R

$$
NMZ524>526-539-540-270600-
SOUTHCENTRAL MOUNTAINS

CITY           SKY/WX    TMP DP  RH WIND       PRES   REMARKS
RUIDOSO        FAIR      68  18  14 W8G22     30.14R

$$
NMZ527>531-270600-
NORTHEAST HIGHLANDS/NORTHEAST PLAINS

CITY           SKY/WX    TMP DP  RH WIND       PRES   REMARKS
LAS VEGAS      FAIR      58  13  17 NW5       30.05R
RATON          FAIR      63  16  16 W15       29.97R
CLAYTON        FAIR      58  36  43 SW6       29.88S

$$
NMZ532>537-270600-
EASTCENTRAL PLAINS

CITY           SKY/WX    TMP DP  RH WIND       PRES   REMARKS
SANTA ROSA     FAIR      67  19  15 SW14      29.90S
TUCUMCARI      FAIR      69  30  23 SW14      29.83R
CANNON AFB     FAIR      65  24  21 SW6       29.92R
CLOVIS AIRPORT FAIR      64  28  25 SW12      29.91R

$$
NMZ028-029-538-270600-
SOUTHEAST PLAINS

CITY           SKY/WX    TMP DP  RH WIND       PRES   REMARKS
ROSWELL        FAIR      71  25  17 SW10      29.89R
ARTESIA        FAIR      70  30  23 S9        29.91R
CARLSBAD       FAIR      73  31  21 SW8       29.89R
HOBBS          FAIR      72  27  18 SW7       29.93F


$$




USA.gov is the U.S. government's official web portal to all federal, state and local government web resources and services.